| time (UTC) | temp C | wind direction | speed KPH | gust KPH | rain 1hr cm | rain 24hr cm | rain mn cm | humidity % | barometer mb |
| 20260508163039 | 13 | 30 | 9.7 | 14.5 | 0.00 | 3.25 | 0.00 | 100 | 1001.7 |
| 20260508161537 | 12 | 3 | 8.0 | 14.5 | 0.00 | 3.25 | 0.00 | 100 | 1001.9 |
| 20260508160035 | 12 | 350 | 9.7 | 14.5 | 0.00 | 3.25 | 0.00 | 100 | 1001.7 |
| 20260508154530 | 11 | 348 | 9.7 | 16.1 | 0.00 | 3.25 | 0.00 | 100 | 1002.0 |
| 20260508153028 | 11 | 346 | 9.7 | 19.3 | 0.00 | 3.25 | 0.00 | 100 | 1001.9 |
| 20260508151529 | 10 | 336 | 11.3 | 19.3 | 0.00 | 3.25 | 0.00 | 100 | 1002.1 |
| 20260508150032 | 10 | 337 | 11.3 | 17.7 | 0.00 | 3.25 | 0.00 | 100 | 1002.0 |
| 20260508144523 | 10 | 327 | 9.7 | 19.3 | 0.00 | 3.25 | 0.00 | 100 | 1002.0 |
| 20260508143024 | 10 | 354 | 16.1 | 24.1 | 0.00 | 3.25 | 0.00 | 100 | 1001.7 |
| 20260508141526 | 10 | 337 | 9.7 | 19.3 | 0.00 | 3.25 | 0.00 | 100 | 1002.0 |
| 20260508140019 | 10 | 333 | 8.0 | 16.1 | 0.00 | 3.25 | 0.00 | 100 | 1002.2 |
| 20260508134519 | 9 | 339 | 9.7 | 17.7 | 0.00 | 3.25 | 0.00 | 100 | 1002.2 |
| 20260508133014 | 8 | 355 | 4.8 | 12.9 | 0.00 | 3.25 | 0.00 | 100 | 1002.5 |
| 20260508131512 | 8 | 35 | 3.2 | 8.0 | 0.00 | 3.25 | 0.00 | 100 | 1002.4 |
| 20260508130010 | 8 | 69 | 3.2 | 8.0 | 0.00 | 3.25 | 0.00 | 100 | 1002.6 |
| 20260508124509 | 8 | 76 | 1.6 | 8.0 | 0.00 | 3.28 | 0.00 | 100 | 1002.4 |
| 20260508123007 | 8 | 13 | 3.2 | 8.0 | 0.00 | 3.28 | 0.00 | 100 | 1002.3 |
| 20260508121509 | 7 | 40 | 3.2 | 9.7 | 0.00 | 3.28 | 0.00 | 100 | 1002.3 |
| 20260508120004 | 7 | 40 | 9.7 | 16.1 | 0.00 | 3.28 | 0.00 | 100 | 1002.3 |
| 20260508114559 | 7 | 356 | 11.3 | 19.3 | 0.00 | 3.28 | 0.00 | 100 | 1002.3 |
| 20260508113106 | 7 | 3 | 4.8 | 16.1 | 0.00 | 3.28 | 0.00 | 100 | 1002.6 |
| 20260508111600 | 7 | 358 | 11.3 | 16.1 | 0.00 | 3.28 | 0.00 | 100 | 1002.6 |
| 20260508110058 | 7 | 3 | 4.8 | 16.1 | 0.00 | 3.28 | 0.00 | 100 | 1002.5 |
| 20260508104551 | 6 | 348 | 4.8 | 9.7 | 0.00 | 3.40 | 0.00 | 100 | 1002.3 |
| 20260508103046 | 5 | 8 | 1.6 | 4.8 | 0.00 | 3.40 | 0.00 | 100 | 1002.5 |
| 20260508101547 | 5 | 8 | 0.0 | 4.8 | 0.00 | 3.40 | 0.00 | 100 | 1002.6 |
| 20260508100044 | 5 | 3 | 1.6 | 4.8 | 0.00 | 3.40 | 0.00 | 100 | 1002.4 |
| 20260508094544 | 5 | 3 | 0.0 | 3.2 | 0.00 | 3.40 | 0.00 | 100 | 1002.3 |
| 20260508093047 | 4 | 3 | 0.0 | 3.2 | 0.00 | 3.40 | 0.00 | 100 | 1002.4 |
| 20260508091549 | 5 | 164 | 0.0 | 4.8 | 0.00 | 3.40 | 0.00 | 100 | 1002.2 |
| 20260508090042 | 5 | 254 | 0.0 | 0.0 | 0.00 | 3.40 | 0.00 | 100 | 1001.9 |
| 20260508084538 | 5 | 254 | 0.0 | 1.6 | 0.00 | 3.43 | 0.00 | 100 | 1002.0 |
| 20260508083042 | 5 | 254 | 0.0 | 3.2 | 0.00 | 3.43 | 0.00 | 100 | 1002.2 |
| 20260508081536 | 5 | 254 | 0.0 | 0.0 | 0.00 | 3.43 | 0.00 | 100 | 1002.1 |
| 20260508080040 | 6 | 254 | 0.0 | 1.6 | 0.00 | 3.43 | 0.00 | 100 | 1001.7 |
| 20260508074544 | 6 | 254 | 1.6 | 3.2 | 0.00 | 3.45 | 0.00 | 100 | 1001.8 |
| 20260508073030 | 6 | 254 | 3.2 | 4.8 | 0.00 | 3.45 | 0.00 | 100 | 1001.6 |
| 20260508071532 | 6 | 198 | 1.6 | 3.2 | 0.00 | 3.45 | 0.00 | 100 | 1001.6 |
| 20260508070029 | 6 | 198 | 1.6 | 3.2 | 0.00 | 3.45 | 0.00 | 100 | 1001.8 |
| 20260508064527 | 6 | 198 | 0.0 | 3.2 | 0.00 | 3.48 | 0.00 | 100 | 1001.6 |
| 20260508063026 | 6 | 198 | 0.0 | 0.0 | 0.00 | 3.48 | 0.00 | 100 | 1001.7 |
| 20260508061525 | 6 | 198 | 0.0 | 1.6 | 0.00 | 3.48 | 0.00 | 100 | 1001.7 |
| 20260508060024 | 6 | 198 | 3.2 | 4.8 | 0.00 | 3.48 | 0.00 | 100 | 1002.0 |
| 20260508054523 | 6 | 190 | 0.0 | 0.0 | 0.00 | 3.48 | 0.00 | 100 | 1001.8 |
| 20260508053024 | 6 | 190 | 0.0 | 0.0 | 0.00 | 3.48 | 0.00 | 100 | 1001.7 |
| 20260508051525 | 6 | 190 | 0.0 | 3.2 | 0.00 | 3.48 | 0.00 | 100 | 1001.8 |
| 20260508050027 | 6 | 190 | 0.0 | 1.6 | 0.00 | 3.48 | 0.00 | 100 | 1001.7 |
| 20260508044518 | 6 | 190 | 0.0 | 3.2 | 0.00 | 3.48 | 0.00 | 100 | 1001.7 |
| 20260508043015 | 6 | 190 | 0.0 | 3.2 | 0.00 | 3.48 | 0.00 | 100 | 1001.8 |
| 20260508041514 | 6 | 190 | 0.0 | 3.2 | 0.00 | 3.48 | 0.00 | 100 | 1001.9 |
| 20260508040014 | 6 | 190 | 0.0 | 0.0 | 0.00 | 3.48 | 0.00 | 100 | 1002.2 |
| 20260508034512 | 6 | 190 | 0.0 | 3.2 | 0.00 | 3.48 | 0.00 | 100 | 1002.1 |
| 20260508033012 | 6 | 190 | 0.0 | 1.6 | 0.00 | 3.48 | 0.00 | 100 | 1002.3 |
| 20260508031510 | 6 | 190 | 1.6 | 3.2 | 0.00 | 3.48 | 0.00 | 100 | 1002.4 |
| 20260508030007 | 6 | 190 | 0.0 | 4.8 | 0.00 | 3.48 | 0.00 | 100 | 1002.6 |
| 20260508024507 | 6 | 190 | 0.0 | 4.8 | 0.00 | 3.48 | 3.48 | 100 | 1002.6 |
| 20260508023005 | 6 | 154 | 0.0 | 3.2 | 0.00 | 3.48 | 3.48 | 100 | 1002.6 |
| 20260508021511 | 6 | 154 | 0.0 | 1.6 | 0.00 | 3.48 | 3.48 | 100 | 1002.6 |
| 20260508020004 | 6 | 154 | 1.6 | 4.8 | 0.00 | 3.48 | 3.48 | 100 | 1002.7 |
| 20260508014503 | 6 | 153 | 4.8 | 8.0 | 0.00 | 3.48 | 3.48 | 100 | 1002.8 |
| 20260508013002 | 6 | 179 | 3.2 | 6.4 | 0.00 | 3.48 | 3.48 | 100 | 1002.9 |
| 20260508011505 | 7 | 163 | 0.0 | 4.8 | 0.00 | 3.48 | 3.48 | 100 | 1002.5 |
| 20260508010006 | 7 | 163 | 1.6 | 4.8 | 0.00 | 3.48 | 3.48 | 100 | 1002.2 |
| 20260508004611 | 7 | 163 | 1.6 | 8.0 | 0.03 | 3.48 | 3.48 | 100 | 1002.5 |
| 20260508003105 | 7 | 169 | 0.0 | 4.8 | 0.03 | 3.48 | 3.48 | 100 | 1002.9 |
| 20260508001559 | 7 | 169 | 0.0 | 3.2 | 0.03 | 3.48 | 3.48 | 100 | 1002.5 |
| 20260508000059 | 7 | 172 | 0.0 | 8.0 | 0.03 | 3.48 | 3.48 | 100 | 1002.5 |
| 20260507234559 | 7 | 194 | 4.8 | 9.7 | 0.00 | 3.45 | 3.45 | 100 | 1002.6 |
| 20260507233058 | 7 | 184 | 3.2 | 9.7 | 0.00 | 3.45 | 3.45 | 100 | 1002.8 |
| 20260507231558 | 7 | 254 | 1.6 | 6.4 | 0.00 | 3.45 | 3.45 | 100 | 1002.4 |
| 20260507230104 | 7 | 144 | 4.8 | 19.3 | 0.00 | 3.45 | 3.45 | 100 | 1002.7 |
| 20260507224656 | 7 | 125 | 8.0 | 14.5 | 0.00 | 3.45 | 3.45 | 100 | 1003.1 |
| 20260507223100 | 7 | 140 | 3.2 | 9.7 | 0.00 | 3.45 | 3.45 | 100 | 1002.8 |
| 20260507221555 | 7 | 175 | 6.4 | 16.1 | 0.00 | 3.45 | 3.45 | 100 | 1003.0 |
| 20260507220054 | 7 | 138 | 11.3 | 20.9 | 0.00 | 3.45 | 3.45 | 100 | 1003.0 |
| 20260507214615 | 8 | 165 | 9.7 | 20.9 | 0.03 | 3.45 | 3.45 | 100 | 1003.2 |
| 20260507213104 | 8 | 159 | 14.5 | 30.6 | 0.03 | 3.45 | 3.45 | 100 | 1003.5 |
| 20260507211607 | 8 | 138 | 14.5 | 20.9 | 0.05 | 3.45 | 3.45 | 100 | 1003.3 |
| 20260507210055 | 8 | 121 | 17.7 | 29.0 | 0.18 | 3.45 | 3.45 | 100 | 1003.0 |
| 20260507204601 | 8 | 146 | 14.5 | 24.1 | 0.25 | 3.43 | 3.43 | 100 | 1002.7 |
| 20260507203053 | 8 | 138 | 11.3 | 20.9 | 0.48 | 3.43 | 3.43 | 100 | 1003.6 |
| 20260507201547 | 8 | 145 | 9.7 | 19.3 | 0.71 | 3.40 | 3.40 | 100 | 1003.9 |
| 20260507200045 | 8 | 138 | 6.4 | 14.5 | 1.02 | 3.28 | 3.28 | 100 | 1004.2 |
| 20260507194613 | 8 | 152 | 9.7 | 14.5 | 1.52 | 3.17 | 3.17 | 100 | 1004.5 |
| 20260507193041 | 8 | 161 | 4.8 | 9.7 | 1.65 | 2.92 | 2.92 | 100 | 1005.0 |
| 20260507191543 | 8 | 131 | 8.0 | 16.1 | 1.85 | 2.67 | 2.67 | 100 | 1005.3 |
| 20260507190034 | 7 | 225 | 8.0 | 20.9 | 1.83 | 2.26 | 2.26 | 100 | 1005.9 |
| 20260507184539 | 7 | 186 | 12.9 | 24.1 | 1.32 | 1.65 | 1.65 | 100 | 1005.9 |
| 20260507183037 | 7 | 164 | 8.0 | 17.7 | 1.02 | 1.30 | 1.30 | 100 | 1005.8 |
| 20260507181531 | 7 | 175 | 9.7 | 19.3 | 0.53 | 0.81 | 0.81 | 100 | 1006.3 |
| 20260507180031 | 6 | 169 | 11.3 | 20.9 | 0.18 | 0.43 | 0.43 | 100 | 1006.1 |
| 20260507174536 | 7 | 142 | 20.9 | 33.8 | 0.08 | 0.33 | 0.33 | 100 | 1005.6 |
| 20260507173035 | 7 | 173 | 11.3 | 27.4 | 0.03 | 0.28 | 0.28 | 100 | 1005.9 |
| 20260507171525 | 7 | 171 | 22.5 | 32.2 | 0.05 | 0.28 | 0.28 | 100 | 1006.4 |
| 20260507170023 | 7 | 149 | 16.1 | 25.7 | 0.03 | 0.25 | 0.25 | 100 | 1006.4 |
| 20260507164522 | 7 | 150 | 14.5 | 27.4 | 0.03 | 0.25 | 0.25 | 100 | 1006.9 |